SHIYAN 30-04

导读 | 豆包AI

SHIYAN 30-04(NORAD编号68140,国际卫星标识符2026-048B)是中国研制的试验卫星,隶属于试验卫星系列,由上海航天技术研究院抓总研制。该卫星于2026年3月12日在西昌卫星发射中心,搭载长征二号丁Y95运载火箭发射升空,运行于近地点585公里、远地点590公里、倾角34.9°的近地轨道,主要任务是开展对地观测相关技术试验验证,此次发射任务获得圆满成功。

Basic Information
目录编号:
68140
目录名称:
SHIYAN 30-04
国际标识:
2026-048B
轨道中心:
EARTH
卫星名称:
SHIYAN 30-04
卫星全名:
SHIYAN 30-04
卫星状态:
在轨 (已飞行39 天)
发射日期:
2026-03-12 UTC
国别 :
中国 (CN)
星等 :
--
Orbit Information
数据来源 国际轨道数据
星历时间: 2026-04-21T01:40:43+0800
4小时前
查看轨道信息
半长轴: 6970.365km
偏心率: 0.0002422
轨道倾角: 34.991°
近地点辐角 236.892°
升交点赤经 252.093°
平近点角 123.155°
近地点: 590.539km
远地点: 593.917km
周期: 96.526分钟
每日圈数: 14.918308
Detailed Information
使用方式:
暂无
2D Orbit Map
3D Orbit Map
Orbit Altitude Analysis Chart
Orbit Inclination Analysis Chart
Orbit Comprehensive Analysis Chart
View Comprehensive Chart